Tracking 31027 objects as of 19-Jul-2025
HD Live streaming from Space Station
objects crossing your sky now

FENGYUN 1C DEB

Track FENGYUN 1C DEB now!
10-day predictions


NORAD ID: 31094
Int'l Code: 1999-025BGQ
Perigee: 816.4 km
Apogee: 976.7 km
Inclination: 98.9 °
Period: 102.8 minutes
Semi major axis: 7267 km
RCS: 0.0135 m2 (small)
Launch date: May 10, 1999
Source: People's Republic of China (PRC)
Launch site: Taiyaun Space Center, China (TSC)

Note: This is SATELLITE DEBRIS
Your satellite tracking list
RESURS O1 DEB
Track 1 satellite(s)




NASA's NSSDC Master Catalog

Two Line Element Set (TLE):
1 31094U 99025BGQ 25199.38932631  .00001206  00000-0  78597-3 0  9991
2 31094  98.8722  71.3870 0110302  97.2888 264.0830 14.01276598935553
Source of the keplerian elements: AFSPC